[[{"header":{"parameterUnit":"m.s-1","parameterCategory":1,"la1":30.2991,"la2":30.254,"lo1":-89.0895,"lo2":-89.0444,"dy":0.0017,"dx":0.0017,"nx":28,"ny":28,"refTime":"2025-12-02T03:00:00:Z","depth":0,"parameterNumber":2,"parameterNumberName":"U-component_of_WINDS"},"data":[0,0,0,0,0,0,0,0,0,0,0,0,0,0,0,0,0,0,0,0,0,0,0,0,0,0,0,0,0,0,0,0,0,0,0,0,0,0,0,0,0,0,0,0,0,0,0,0,0,0,0,0,0,0,0,0,0,0,-2.8276,-2.8277,0,-2.8413,-2.8415,-2.8416,-2.8355,-2.8351,-2.8348,-2.8345,-2.8491,-2.8498,-2.8505,0,0,0,0,0,0,0,0,0,0,0,0,0,-2.7964,-2.797,-2.8276,-2.8277,-2.8279,-2.8413,-2.8415,-2.8417,-2.8355,-2.8351,-2.8347,-2.8343,-2.8488,-2.8497,-2.8505,0,0,0,0,0,0,0,0,0,0,0,0,0,-2.81,-2.7972,-2.8275,-2.8264,-2.8265,-2.8413,-2.8415,-2.8417,-2.8356,-2.8351,-2.8346,-2.8341,-2.8486,-2.8496,-2.8506,-2.8675,0,0,-2.8539,-2.8544,0,0,0,0,0,0,0,0,-2.8093,-2.8112,-2.8264,-2.8265,-2.8266,-2.8361,-2.8359,-2.8504,-2.8358,-2.8322,-2.8345,-2.8339,-2.8452,-2.8465,-2.8503,-2.8682,-2.8688,-2.854,-2.8546,-2.8551,-2.8554,0,0,0,0,0,0,0,-2.8083,-2.8106,-2.833,-2.8267,-2.8268,-2.8254,-2.8268,-2.8386,-2.8414,-2.8324,-2.832,-2.8337,-2.8452,-2.8492,-2.8506,-2.869,-2.854,-2.8549,-2.8556,-2.856,-2.9016,-2.9021,0,0,0,0,0,0,-2.8073,-2.8098,-2.8326,-2.8334,-2.8165,-2.8264,-2.8279,-2.8336,-2.8413,-2.8419,-2.8341,-2.8334,-2.8477,-2.8493,-2.851,-2.8714,-2.8551,-2.8561,-2.8567,-2.901,-2.9017,-2.9023,0,0,0,0,0,0,-2.8067,-2.8094,-2.832,-2.8215,-2.8243,-2.8275,-2.8339,-2.8342,-2.8382,-2.8425,-2.8431,-2.8378,-2.8473,-2.8496,-2.8634,-2.8719,-2.8566,-2.8575,-2.9003,-2.9012,-2.902,-2.9123,0,0,0,0,0,0,-2.8058,-2.8092,-2.8156,-2.8217,-2.8249,-2.8441,-2.8344,-2.8348,-2.84,-2.8391,-2.8461,-2.8467,-2.8471,-2.8619,-2.8645,-2.873,-2.8583,-2.8996,-2.9007,-2.9017,-2.9112,-2.9134,-2.9152,0,0,0,0,0,-2.8047,-2.818,-2.8159,-2.8187,-2.8328,-2.8446,-2.8464,-2.8464,-2.8407,-2.8472,-2.85,-2.8465,-2.8704,-2.8634,-2.8662,-2.8752,-2.8991,-2.9004,-2.9017,-2.9103,-2.9129,-2.9152,0,0,0,0,0,0,-2.8129,-2.8188,-2.8166,-2.8321,-2.8379,-2.8435,-2.8517,-2.8492,-2.8569,-2.8558,-2.8556,-2.8572,-2.8716,-2.8748,-2.8668,-2.892,-2.8839,-2.8858,-2.8895,-2.892,-2.894,-2.8931,-2.8592,0,0,0,0,0,-2.8165,-2.8254,-2.8301,-2.8434,-2.8463,-2.8485,-2.8537,-2.8531,-2.8592,-2.8617,-2.8654,-2.8716,-2.8805,-2.8864,-2.8948,-2.9115,-2.9131,-2.9191,-2.9211,-2.9227,-2.9245,-2.9338,-2.9366,-2.9066,-2.9066,-2.9065,0,0,-2.8241,-2.8283,-2.834,-2.8451,-2.8495,-2.859,-2.8506,-2.8609,-2.868,-2.8633,-2.8766,-2.8796,-2.8865,-2.9019,-2.9089,-2.905,-2.9331,-2.9244,-2.9257,-2.9266,-2.9354,-2.9383,-2.9408,-2.9075,-2.9073,-2.9072,0,0,-2.8427,-2.8467,-2.8584,-2.8629,-2.8696,-2.871,-2.8738,-2.8798,-2.8816,-2.8949,-2.8916,-2.9,-2.9153,-2.9204,-2.9249,-2.9455,-2.9427,-2.9482,-2.9589,-2.9679,-2.9703,-2.9724,-2.98,-2.9827,-2.9499,-2.9499,-2.9499,0,-2.8514,-2.8653,-2.8647,-2.8753,-2.8804,-2.8763,-2.8882,-2.8926,-2.9019,-2.9055,-2.9009,-2.9201,-2.9244,-2.941,-2.946,-2.9498,-2.9532,-2.9476,-2.97,-2.9721,-2.974,-2.9813,-2.9841,-2.9506,-2.9505,-2.9504,-2.9504,0,-2.8757,-2.8854,-2.894,-2.9028,-2.9088,-2.92,-2.9213,-2.9274,-2.9264,-2.9283,-2.942,-2.947,-2.9564,-2.9603,-2.9594,-2.9769,-2.9743,-2.9698,-2.9618,-2.9776,-2.9844,-2.9871,-2.9515,-2.9513,-2.9511,-2.9509,0,0,-2.9001,-2.9084,-2.9116,-2.9156,-2.9227,-2.9303,-2.9413,-2.9504,-2.9558,-2.9622,-2.9717,-2.9847,-2.9806,-2.9858,-2.9854,-2.9933,-3.0096,-2.9879,-2.9881,-2.9921,-3.0295,-3.033,-3.0362,-3.0076,-3.0081,-3.0086,-3.029,0,-2.9195,-2.9387,-2.9385,-2.9564,-2.9655,-2.9617,-2.9714,-2.9768,-2.9789,-2.987,-2.9893,-2.9986,-2.9924,-2.9955,-3.0031,-3.006,-3.0172,-3.0045,-3.0167,-3.0172,-3.0154,-3.0398,-3.0435,-3.0626,-3.0317,-3.0321,-3.0324,0,-2.9448,-2.952,-2.9707,-2.9765,-2.9804,-2.989,-2.9974,-3.0051,-3.0113,-3.0122,-3.018,-3.0164,-3.0278,-3.0191,-3.035,-3.0264,-3.0313,-3.0335,-3.0342,-3.0357,-3.026,-3.0422,-3.0687,-3.0717,-3.0366,-3.0362,-3.0359,0,-2.9611,-2.9754,-2.9886,-2.9921,-2.9991,-3.0053,-3.0086,-3.0142,-3.0197,-3.027,-3.0306,-3.0392,-3.044,-3.0508,-3.0516,-3.0452,-3.0677,-3.059,-3.0691,-3.0691,-3.0743,-3.074,-3.1023,-3.0769,-3.0769,-3.0768,-3.0768,0,-2.983,-2.9947,-2.996,-3.0041,-3.0172,-3.0168,-3.0298,-3.0325,-3.0376,-3.0463,-3.0434,-3.0517,-3.0521,-3.0607,-3.0614,-3.0746,-3.0767,-3.078,-3.0781,-3.0785,-3.0784,-3.082,-3.0808,-3.0776,-3.0774,-3.0773,-3.0771,0,-3.0036,-3.0049,-3.019,-3.0244,-3.0261,-3.0355,-3.0402,-3.0481,-3.0497,-3.0608,-3.0634,-3.0661,-3.076,-3.0774,-3.089,-3.0895,-3.1055,-3.104,-3.1034,-3.1033,-3.1134,-3.1126,-3.1453,-3.1497,-3.1211,-3.1214,-3.1216,0,-3.0176,-3.0266,-3.0329,-3.0385,-3.042,-3.051,-3.0566,-3.0565,-3.0625,-3.0702,-3.0772,-3.0867,-3.0944,-3.1105,-3.1136,-3.1225,-3.1215,-3.1323,-3.1229,-3.123,-3.1221,-3.1217,-3.1227,-3.1343,-3.1346,-3.1349,-3.1351,0,-3.0426,-3.0427,-3.0508,-3.0591,-3.0658,-3.0724,-3.0786,-3.0833,-3.0841,-3.0909,-3.1009,-3.1069,-3.1187,-3.1284,-3.1372,-3.1407,-3.1382,-3.138,-3.1408,-3.1415,-3.1409,-3.1416,-3.1088,-3.1373,-3.1371,-3.1369,-3.1368,-3.1367,-3.0605,-3.0684,-3.0741,-3.0832,-3.0878,-3.0936,-3.1013,-3.1039,-3.1121,-3.1217,-3.1211,-3.1323,-3.1383,-3.1498,-3.154,-3.1628,-3.1593,-3.1633,-3.1644,-3.1655,-3.1667,-3.1391,-3.1643,-3.1643,-3.1642,-3.1642,-3.1641,0,-3.0856,-3.089,-3.0974,-3.1061,-3.1133,-3.1099,-3.1166,-3.123,-3.1327,-3.1384,-3.146,-3.1576,-3.167,-3.1708,-3.18,-3.1863,-3.1854,-3.1888,-3.1885,-3.1894,-3.1691,-3.1659,-3.1894,-3.1894,-3.1894,-3.1894,-3.1894,-3.1893,-3.0995,-3.1126,-3.1134,-3.1289,-3.1322,-3.143,-3.1471,-3.1526,-3.1572,-3.1702,-3.1779,-3.1802,-3.1853,-3.1948,-3.2033,-3.2042,-3.2079,-3.2119,-3.2123,-3.1934,-3.1908,-3.1884,-3.1854,-3.2126,-3.2126,-3.2319,-3.2321,-3.2322]},{"header":{"parameterUnit":"m.s-1","parameterCategory":1,"la1":30.2991,"la2":30.254,"lo1":-89.0895,"lo2":-89.0444,"dy":0.0017,"dx":0.0017,"nx":28,"ny":28,"refTime":"2025-12-02T03:00:00:Z","depth":0,"parameterNumber":3,"parameterNumberName":"V-component_of_WINDS"},"data":[0,0,0,0,0,0,0,0,0,0,0,0,0,0,0,0,0,0,0,0,0,0,0,0,0,0,0,0,0,0,0,0,0,0,0,0,0,0,0,0,0,0,0,0,0,0,0,0,0,0,0,0,0,0,0,0,0,0,-3.3014,-3.3013,0,-3.2952,-3.2952,-3.2951,-3.2866,-3.2864,-3.2863,-3.2862,-3.2799,-3.2799,-3.2799,0,0,0,0,0,0,0,0,0,0,0,0,0,-3.3057,-3.3057,-3.3014,-3.3013,-3.3012,-3.2953,-3.2952,-3.2951,-3.2866,-3.2864,-3.2862,-3.2861,-3.28,-3.2799,-3.2799,0,0,0,0,0,0,0,0,0,0,0,0,0,-3.3021,-3.3057,-3.3014,-3.2963,-3.2957,-3.2953,-3.2952,-3.2951,-3.2866,-3.2864,-3.2862,-3.286,-3.28,-3.2799,-3.2799,-3.2839,0,0,-3.2797,-3.2797,0,0,0,0,0,0,0,0,-3.3024,-3.302,-3.2971,-3.2966,-3.296,-3.2914,-3.2944,-3.2913,-3.2867,-3.2901,-3.2861,-3.2859,-3.284,-3.2836,-3.2829,-3.2836,-3.2834,-3.2797,-3.2797,-3.2797,-3.2797,0,0,0,0,0,0,0,-3.3026,-3.3022,-3.2989,-3.297,-3.2964,-3.2943,-3.2935,-3.2938,-3.2883,-3.2898,-3.2892,-3.2885,-3.2836,-3.283,-3.2827,-3.2833,-3.2797,-3.2797,-3.2797,-3.2796,-3.2869,-3.2871,0,0,0,0,0,0,-3.3036,-3.3025,-3.2991,-3.2988,-3.2987,-3.2944,-3.2935,-3.2931,-3.2883,-3.2873,-3.2887,-3.2882,-3.2831,-3.2827,-3.2824,-3.2868,-3.2797,-3.2796,-3.2796,-3.2867,-3.2869,-3.2872,0,0,0,0,0,0,-3.3037,-3.3034,-3.2994,-3.3004,-3.2998,-3.2945,-3.2942,-3.2931,-3.2925,-3.2875,-3.2865,-3.2891,-3.283,-3.2825,-3.2836,-3.2864,-3.2796,-3.2796,-3.2864,-3.2868,-3.2871,-3.2956,0,0,0,0,0,0,-3.3039,-3.3035,-3.305,-3.3005,-3.2997,-3.3007,-3.2943,-3.2932,-3.2924,-3.2916,-3.2875,-3.2867,-3.2828,-3.2837,-3.2835,-3.2863,-3.2795,-3.2861,-3.2866,-3.287,-3.295,-3.2962,-3.2971,0,0,0,0,0,-3.3041,-3.3077,-3.3051,-3.3048,-3.3015,-3.3009,-3.3004,-3.2958,-3.2927,-3.2941,-3.2909,-3.2868,-3.2862,-3.2839,-3.2836,-3.2864,-3.2859,-3.2865,-3.2869,-3.2946,-3.2959,-3.2971,0,0,0,0,0,0,-3.3127,-3.307,-3.3041,-3.3064,-3.3042,-3.2994,-3.3012,-3.2975,-3.2961,-3.2955,-3.2898,-3.289,-3.2908,-3.2887,-3.2862,-3.29,-3.2854,-3.2859,-3.2913,-3.2926,-3.2936,-3.2941,-3.2795,0,0,0,0,0,-3.3149,-3.3148,-3.3098,-3.3123,-3.3114,-3.3065,-3.306,-3.3027,-3.3001,-3.2992,-3.296,-3.2938,-3.293,-3.2927,-3.2917,-3.2947,-3.2936,-3.2964,-3.2975,-3.2984,-3.2988,-3.3001,-3.3013,-3.2888,-3.2888,-3.2888,0,0,-3.3194,-3.3162,-3.3166,-3.314,-3.3119,-3.3119,-3.3057,-3.3061,-3.3061,-3.2992,-3.3,-3.2977,-3.2947,-3.2967,-3.2975,-3.2951,-3.302,-3.299,-3.2997,-3.2997,-3.3007,-3.3019,-3.303,-3.2891,-3.2891,-3.289,0,0,-3.3275,-3.3252,-3.3269,-3.3249,-3.3218,-3.3185,-3.3189,-3.3147,-3.3128,-3.3135,-3.3084,-3.3083,-3.3071,-3.3052,-3.3041,-3.3114,-3.3076,-3.3113,-3.3168,-3.3181,-3.3191,-3.3199,-3.3225,-3.3235,-3.3118,-3.3118,-3.3118,0,-3.3335,-3.3334,-3.3283,-3.3289,-3.3279,-3.3217,-3.3234,-3.3217,-3.3184,-3.3179,-3.3152,-3.3136,-3.3112,-3.3126,-3.3143,-3.3137,-3.3139,-3.3117,-3.3194,-3.3202,-3.3209,-3.3232,-3.3242,-3.3123,-3.3122,-3.3122,-3.3121,0,-3.3408,-3.3408,-3.3426,-3.3395,-3.3387,-3.3399,-3.335,-3.3348,-3.3315,-3.3284,-3.3292,-3.3261,-3.3243,-3.3244,-3.3212,-3.3253,-3.3239,-3.3204,-3.3157,-3.3226,-3.3247,-3.3256,-3.3129,-3.3128,-3.3126,-3.3125,0,0,-3.3544,-3.3484,-3.3491,-3.3476,-3.3436,-3.3435,-3.3444,-3.3426,-3.3425,-3.3404,-3.341,-3.3401,-3.3368,-3.3355,-3.332,-3.3332,-3.339,-3.3294,-3.3293,-3.3313,-3.3433,-3.346,-3.3471,-3.3364,-3.3366,-3.3367,-3.3435,0,-3.3617,-3.3629,-3.3583,-3.3606,-3.3605,-3.3545,-3.3552,-3.3528,-3.35,-3.3494,-3.3463,-3.3457,-3.3414,-3.3406,-3.3414,-3.3382,-3.3414,-3.3376,-3.3368,-3.3369,-3.3378,-3.3482,-3.3511,-3.3577,-3.3443,-3.3445,-3.3446,0,-3.3705,-3.3689,-3.3712,-3.3669,-3.3667,-3.3675,-3.3654,-3.365,-3.3621,-3.36,-3.3585,-3.3544,-3.3549,-3.3504,-3.3509,-3.3485,-3.3478,-3.3462,-3.3463,-3.3461,-3.3412,-3.3483,-3.3597,-3.3607,-3.3458,-3.3457,-3.3456,0,-3.3802,-3.3785,-3.3796,-3.3785,-3.3736,-3.3742,-3.3722,-3.3691,-3.3683,-3.3666,-3.366,-3.3643,-3.3634,-3.3621,-3.3577,-3.3548,-3.3587,-3.3538,-3.3569,-3.357,-3.358,-3.358,-3.3695,-3.3577,-3.3576,-3.3576,-3.3576,0,-3.3889,-3.3905,-3.3838,-3.3845,-3.3861,-3.3808,-3.3826,-3.38,-3.3772,-3.3773,-3.372,-3.3721,-3.3662,-3.3657,-3.3622,-3.3631,-3.3627,-3.361,-3.36,-3.3615,-3.3617,-3.361,-3.3605,-3.3579,-3.3578,-3.3578,-3.3577,0,-3.3999,-3.3955,-3.3963,-3.3916,-3.3904,-3.3918,-3.3877,-3.3882,-3.3849,-3.3851,-3.3848,-3.3797,-3.3788,-3.3742,-3.3722,-3.3699,-3.372,-3.3701,-3.373,-3.3724,-3.3757,-3.3754,-3.3871,-3.3884,-3.3758,-3.3759,-3.376,0,-3.4058,-3.4069,-3.4023,-3.4019,-3.4001,-3.3996,-3.3987,-3.3935,-3.3928,-3.3896,-3.3904,-3.389,-3.3877,-3.3865,-3.3826,-3.381,-3.3791,-3.3833,-3.3788,-3.3802,-3.3791,-3.3791,-3.3791,-3.3843,-3.3844,-3.3846,-3.3847,0,-3.4167,-3.4144,-3.4134,-3.4116,-3.4107,-3.409,-3.407,-3.407,-3.4012,-3.4007,-3.3996,-3.3986,-3.3965,-3.3952,-3.393,-3.3908,-3.3868,-3.3861,-3.3867,-3.3882,-3.3898,-3.3889,-3.3756,-3.3859,-3.3857,-3.3856,-3.3856,-3.3855,-3.4253,-3.426,-3.4228,-3.4218,-3.4197,-3.4179,-3.4181,-3.4148,-3.4139,-3.4118,-3.4087,-3.4081,-3.405,-3.4016,-3.3997,-3.3991,-3.3968,-3.3977,-3.398,-3.3983,-3.399,-3.3899,-3.3987,-3.3986,-3.3986,-3.3986,-3.3985,0,-3.4359,-3.4335,-3.4327,-3.43,-3.4292,-3.4254,-3.4229,-3.4225,-3.422,-3.4195,-3.4182,-3.417,-3.4157,-3.4117,-3.4099,-3.4102,-3.4083,-3.4099,-3.4098,-3.4094,-3.4012,-3.4008,-3.4115,-3.4115,-3.4115,-3.4115,-3.4115,-3.4115,-3.4414,-3.4423,-3.4396,-3.4394,-3.4369,-3.4363,-3.4352,-3.4335,-3.4315,-3.4303,-3.4292,-3.4266,-3.4234,-3.4213,-3.4199,-3.4187,-3.4184,-3.4206,-3.4188,-3.4112,-3.41,-3.4088,-3.4084,-3.4206,-3.4206,-3.4271,-3.4272,-3.4272]}]]